Estación de Longaví Norte
Ultimos registro cada 15 minutos 50
| N° | Estación | Fecha / Hora | Temperatura | Humedad | Lluvia | Velocidad | Dirección | Radiación | Presion |
| 50 | Longaví Norte | 08-05-2026 12:15 | 11,5 | 94,8 | 0 | 0,7 | 69 | 305,6 | 1002,9 |
| 49 | Longaví Norte | 08-05-2026 12:00 | 10,6 | 95,5 | 0 | 0,3 | 55 | 310,6 | 1002,9 |
| 48 | Longaví Norte | 08-05-2026 11:45 | 10,2 | 94,3 | 0,2 | 0,3 | 1 | 241,9 | 1003,1 |
| 47 | Longaví Norte | 08-05-2026 11:30 | 10,1 | 93,8 | 0,2 | 0 | 35 | 189,4 | 1003,3 |
| 46 | Longaví Norte | 08-05-2026 11:15 | 10,2 | 93,7 | 0 | 0 | 4 | 204,4 | 1003,6 |
| 45 | Longaví Norte | 08-05-2026 11:00 | 9,9 | 92,2 | 0 | 0,3 | 333 | 163,1 | 1003,5 |
| 44 | Longaví Norte | 08-05-2026 10:45 | 10,1 | 91,1 | 0 | 0,3 | 310 | 249,4 | 1003,9 |
| 43 | Longaví Norte | 08-05-2026 10:30 | 9,8 | 91,3 | 0 | 0,3 | 314 | 178,1 | 1003,6 |
| 42 | Longaví Norte | 08-05-2026 10:15 | 9,5 | 94 | 0 | 0,3 | 351 | 114,4 | 1003,5 |
| 41 | Longaví Norte | 08-05-2026 10:00 | 9,1 | 95 | 0 | 0,3 | 1 | 111,9 | 1003,6 |
| 40 | Longaví Norte | 08-05-2026 09:45 | 9,2 | 97 | 0 | 0,3 | 45 | 131,9 | 1003,3 |
| 39 | Longaví Norte | 08-05-2026 09:30 | 8,9 | 98 | 0 | 0,3 | 350 | 134,4 | 1003,4 |
| 38 | Longaví Norte | 08-05-2026 09:15 | 8,6 | 99 | 0,2 | 0,3 | 337 | 116,9 | 1003,6 |
| 37 | Longaví Norte | 08-05-2026 09:00 | 8,3 | 99,4 | 0 | 0,3 | 351 | 60,6 | 1003,8 |
| 36 | Longaví Norte | 08-05-2026 08:45 | 8,1 | 99,6 | 0 | 0,3 | 21 | 58,1 | 1003,5 |
| 35 | Longaví Norte | 08-05-2026 08:30 | 7,7 | 100 | 0 | 0,3 | 51 | 84,4 | 1003,2 |
| 34 | Longaví Norte | 08-05-2026 08:15 | 7,3 | 100 | 0 | 0 | 37 | 38,1 | 1003,2 |
| 33 | Longaví Norte | 08-05-2026 08:00 | 7,1 | 99,9 | 0 | 0 | 355 | 25,6 | 1003,3 |
| 32 | Longaví Norte | 08-05-2026 07:45 | 7 | 100 | 0 | 0 | 355 | 14,4 | 1003,7 |
| 31 | Longaví Norte | 08-05-2026 07:30 | 6,9 | 100 | 0 | 0 | 355 | 0,6 | 1003,6 |
| 30 | Longaví Norte | 08-05-2026 07:15 | 6,9 | 100 | 0 | 0 | 355 | 0,6 | 1003,7 |
| 29 | Longaví Norte | 08-05-2026 07:00 | 6,8 | 99,9 | 0 | 0 | 355 | 0,6 | 1003,8 |
| 28 | Longaví Norte | 08-05-2026 06:45 | 6,7 | 100 | 0 | 0 | 48 | 0,6 | 1003,6 |
| 27 | Longaví Norte | 08-05-2026 06:30 | 6,4 | 100 | 0 | 0 | 198 | 0,6 | 1003,6 |
| 26 | Longaví Norte | 08-05-2026 06:15 | 6,3 | 99,9 | 0 | 0 | 201 | 0,6 | 1003,6 |
| 25 | Longaví Norte | 08-05-2026 06:00 | 6,4 | 99,8 | 0 | 0 | 201 | 0,6 | 1003,6 |
| 24 | Longaví Norte | 08-05-2026 05:45 | 6,4 | 99,8 | 0 | 0 | 201 | 0,6 | 1003,9 |
| 23 | Longaví Norte | 08-05-2026 05:30 | 6,4 | 99,6 | 0 | 0 | 201 | 0,6 | 1004 |
| 22 | Longaví Norte | 08-05-2026 05:15 | 6,5 | 99,7 | 0 | 0 | 201 | 0,6 | 1004,2 |
| 21 | Longaví Norte | 08-05-2026 05:00 | 6,5 | 99,7 | 0 | 0 | 201 | 0,6 | 1004,2 |
| 20 | Longaví Norte | 08-05-2026 04:45 | 6,5 | 99,6 | 0 | 0 | 201 | 0,6 | 1004,2 |
| 19 | Longaví Norte | 08-05-2026 04:30 | 6,4 | 99,6 | 0 | 0 | 201 | 0,6 | 1004,2 |
| 18 | Longaví Norte | 08-05-2026 04:15 | 6,1 | 99,6 | 0 | 0 | 201 | 0,6 | 1004,4 |
| 17 | Longaví Norte | 08-05-2026 04:00 | 5,9 | 99,5 | 0 | 0 | 201 | 0,6 | 1004,2 |
| 16 | Longaví Norte | 08-05-2026 03:45 | 5,5 | 99,6 | 0 | 0 | 201 | 0,6 | 1004,1 |
| 15 | Longaví Norte | 08-05-2026 03:30 | 5,4 | 99,6 | 0 | 0 | 201 | 0,6 | 1004,2 |
| 14 | Longaví Norte | 08-05-2026 03:15 | 4,9 | 99,4 | 0 | 0 | 201 | 0,6 | 1004,3 |
| 13 | Longaví Norte | 08-05-2026 03:00 | 4,8 | 99,1 | 0 | 0 | 201 | 0,6 | 1004,5 |
| 12 | Longaví Norte | 08-05-2026 02:45 | 5,1 | 99,1 | 0 | 0 | 201 | 0,6 | 1005,1 |
| 11 | Longaví Norte | 08-05-2026 02:30 | 5 | 99,2 | 0 | 0 | 201 | 0,6 | 1005,6 |
| 10 | Longaví Norte | 08-05-2026 02:15 | 4,7 | 99 | 0 | 0 | 201 | 0,6 | 1005,6 |
| 9 | Longaví Norte | 08-05-2026 02:00 | 4,8 | 98,9 | 0 | 0 | 201 | 0,6 | 1005,6 |
| 8 | Longaví Norte | 08-05-2026 01:45 | 5,1 | 99 | 0 | 0 | 201 | 0,6 | 1006 |
| 7 | Longaví Norte | 08-05-2026 01:30 | 5,2 | 98,8 | 0 | 0 | 201 | 0,6 | 1005,9 |
| 6 | Longaví Norte | 08-05-2026 01:15 | 5,2 | 98,5 | 0 | 0 | 201 | 0,6 | 1006 |
| 5 | Longaví Norte | 08-05-2026 01:00 | 5,4 | 98,3 | 0 | 0 | 201 | 0,6 | 1006,2 |
| 4 | Longaví Norte | 08-05-2026 00:45 | 5,6 | 98,2 | 0 | 0 | 201 | 0,6 | 1006,2 |
| 3 | Longaví Norte | 08-05-2026 00:30 | 5,5 | 98 | 0 | 0 | 201 | 0,6 | 1006,3 |
| 2 | Longaví Norte | 08-05-2026 00:15 | 5,5 | 97,8 | 0 | 0 | 201 | 0,6 | 1006,5 |
| 1 | Longaví Norte | 08-05-2026 00:00 | 5,3 | 97,7 | 0 | 0 | 201 | 0,6 | 1006,7 |